Regional Weather Roundup
Issued by NWS

Home | Current Version | Previous Version | Graphics & Text | Print | Product List | Glossary On
Versions: 1 2 3 4 5 6 7 8 9 10 11 12 13 14 15 16 17 18 19 20 21 22 23 24 25 26 27 28 29 30 31 32 33 34 35 36 37 38 39 40 41 42 43 44 45 46 47 48 49 50
000
ASUS45 KCYS 221610
RWRWY

WYOMING REGIONAL WEATHER ROUNDUP
NATIONAL WEATHER SERVICE CHEYENNE WY
900 AM MST WED FEB 22 2017

NOTE:  "FAIR" INDICATES FEW OR NO CLOUDS BELOW 12,000 FEET
WITH NO SIGNIFICANT WEATHER AND/OR OBSTRUCTIONS TO VISIBILITY.

WYZ001-221700-
YELLOWSTONE NATIONAL PARK

CITY           SKY/WX    TMP DP  RH WIND       PRES   REMARKS
LK YELLOWSTONE   N/A     22  17  81 CALM      29.89R
W YELLOWSTONE  NOT AVBL

$$
WYZ002>013-054>058-071-098>099-221700-
NORTHERN WYOMING

CITY           SKY/WX    TMP DP  RH WIND       PRES   REMARKS
JACKSON        FAIR      27  19  74 S14       29.93S WCI  15
CODY           FAIR      38  16  40 W12G18    29.85F WCI  30
GREYBULL       NOT AVBL
WORLAND        FAIR      33  28  81 E3        29.86S
SHERIDAN       FAIR      40  26  57 NW12G17   29.85R WCI  33
BUFFALO        FAIR      39  21  48 N21G28    29.83R WCI  29
GILLETTE       CLOUDY    40  24  53 NW15      29.83R WCI  32
HULETT         CLOUDY    41  27  56 W7        29.82R
NEWCASTLE      FAIR      39  27  60 NW6       29.83S WCI  35

$$
WYZ014>020-022>026-101>103-221700-
CENTRAL WYOMING

CITY           SKY/WX    TMP DP  RH WIND       PRES   REMARKS
BIG PINEY      FAIR      19  14  81 NE7       29.94R WCI  10
PINEDALE       CLOUDY    23  19  86 CALM      29.95R
DUBOIS         FAIR      25  14  63 W14       29.88S WCI  13
LANDER         FAIR      35  18  49 N13       29.86F WCI  26
RIVERTON       FAIR      34  23  64 NW14      29.87F WCI  25
CASPER         FAIR      36  20  52 SW14G23   29.88F WCI  27
DOUGLAS        PTSUNNY   39  22  50 W17       29.86F WCI  30

$$
WYZ021-027>030-104>119-221700-
SOUTHERN WYOMING

CITY           SKY/WX    TMP DP  RH WIND       PRES   REMARKS
EVANSTON       CLOUDY    24  21  88 S7        29.93F WCI  16
KEMMERER         N/A     27  23  86 SW5       29.95  WCI  21
FORT BRIDGER   CLOUDY    26  26  99 S9        29.98S WCI  17
ROCK SPRINGS   CLOUDY    26  22  84 S7        29.95F WCI  18
DIXON          SNOW      29  27  92 CALM      30.01S VSB 1/2
RAWLINS        PTSUNNY   28  23  81 SW17      29.94F WCI  16
SARATOGA       LGT SNOW  28  28 100 CALM      29.97S VSB 1
LARAMIE        CLOUDY    28  25  88 SW5       29.92S WCI  23
CHEYENNE       FAIR      39  23  52 NW17G25   29.92S WCI  30
TORRINGTON     PTSUNNY   46  23  40 W26G33    29.84F
PINE BLUFFS    FAIR      41  21  45 NW20G28   29.90S

$$



USA.gov is the U.S. government's official web portal to all federal, state and local government web resources and services.